Location: Holyhead Bay
(53.3667°N, 4.6667°W)
Time: 09:43:34
(UTC+00:00)

Cosmos 2360 Rocket - Pass Details

Date: 14 April 2021
Orbit: 833 x 845 km, 71.0° (Epoch: 08 May)

Event Time Altitude Azimuth Distance (km) Brightness Sun altitude
Rises 19:50:37 0° 327° (NNW) 3,417 6.4 -5.4°
Reaches altitude 10° 19:53:05 10° 327° (NNW) 2,478 5.7 -5.7°
Maximum altitude 19:58:47 84° 241° (WSW) 856 2.3 -6.5°
Drops below altitude 10° 20:04:26 10° 154° (SSE) 2,455 4.1 -7.2°
Enters shadow 20:06:12 - 153° (SSE) 3,136 4.7 -7.5°
